Skip Navigation Linkswww.weather.gov 
NOAA logo - Click to go to the NOAA homepage National Weather Service   NWS logo - Click to go to the NWS homepage    
Western Region Headquarters
navigation bar decoration      
Regional Divisions
 
 
 
 
 
USA.gov is the U.S. government's official web portal to all federal, state and local government web resources and services.
spacer
Printer Friendly  |   Go Back  |  Version: Current   1   2   3   4   5   6   7   8   9   10   |  Font:  A A A  |  
This version is NOT current and may no longer be valid!

HOURLY WEATHER ROUNDUP
 
 ASUS45 KREV 271410
RWRNV
NEVADA REGIONAL WEATHER ROUNDUP
NATIONAL WEATHER SERVICE RENO NV
700 AM PDT FRI MAR 27 2015

NOTE: "FAIR" INDICATES FEW OR NO CLOUDS BELOW 12,000 FEET WITH NO
SIGNIFICANT WEATHER AND/OR OBSTRUCTIONS TO VISIBILITY.

NVZ001-003-004-271500-
WESTERN NEVADA

CITY SKY/WX TMP DP RH WIND PRES REMARKS
RENO CLEAR 45 33 63 CALM 30.25S
CARSON CITY FAIR 39 30 70 CALM 30.28R
MINDEN FAIR 32 25 74 E3 30.29
SLIDE MTN N/A 39 30 70 SW7 N/A
FALLON CLEAR 41 25 53 SE5 30.23S
LOVELOCK CLEAR 31 20 63 CALM 30.23S
HAWTHORNE CLEAR 45 28 53 CALM 30.26R
$$

NVZ002-CAZ072-073-271500-
NORTHERN AND CENTRAL SIERRA

CITY SKY/WX TMP DP RH WIND PRES REMARKS
S. LAKE TAHOE CLEAR 31 25 78 MISG 30.33R
TRUCKEE FOG 30 28 93 CALM 30.33R VSB 1/4
SQUAW VLY 8000 N/A 43 23 45 SW7 N/A
BLUE CANYON CLEAR 55 22 27 E3 30.28S
MAMMOTH LAKES FAIR 27 19 74 CALM 30.38R
BRIDGEPORT FAIR 29 21 72 CALM 30.34R
$$

NVZ030-031-036-271500-
NORTHERN NEVADA

CITY SKY/WX TMP DP RH WIND PRES REMARKS
ELKO CLEAR 34 26 72 NE3 30.32R
WINNEMUCCA CLEAR 30 23 75 CALM 30.26R
WENDOVER CLEAR 39 25 56 CALM 30.32R
$$

NVZ035-037-271500-
CENTRAL NEVADA

CITY SKY/WX TMP DP RH WIND PRES REMARKS
ELY CLEAR 29 20 69 S13 30.36S
EUREKA N/A 33 23 66 SW7 30.33R
$$

NVZ013-014-271500-
SOUTH CENTRAL NEVADA

CITY SKY/WX TMP DP RH WIND PRES REMARKS
TONOPAH CLEAR 40 19 43 N13 30.31R
$$

NVZ017-020-022-271500-
SOUTHERN NEVADA

CITY SKY/WX TMP DP RH WIND PRES REMARKS
LAS VEGAS CLEAR 60 27 28 SW7 30.14R
N. LAS VEGAS CLEAR 57 28 33 CALM 30.17R
NELLIS AFB NOT AVBL
HENDERSON CLEAR 54 29 38 S9 30.20R
MERCURY CLEAR 49 25 39 N5 30.20R
$$


Webmaster
US Dept of Commerce
National Oceanic and Atmospheric Administration
National Weather Service
Western Region Headquarters
125 South State Street
Salt Lake City, UT 84138-1102

Disclaimer
Information Quality
Credits
Glossary
Organization
Privacy Policy
Freedom of Information Act
About Us
Career Opportunities